FENGYUN 1C DEB, 29890

Orbit data source: Space-Track

FENGYUN 1C DEB, 29890 is space debris in SSO originally from a launch on Mon, 10 May 1999 UTC launched from the Taiyaun Space Center, China (TSC). Fengyun 1C debris stems from the Chinese weather satellite Fengyun-1C, which was intentionally destroyed by a Chinese anti-satellite missile in 2007. This event dramatically increased the amount of space debris, with thousands of trackable fragments posing hazards to satellites and human spaceflight. The Fengyun 1C debris cloud has become a focal point in discussions about space sustainability and the need for international regulations to prevent the creation of new debris.

Loading next visibility...
Identifier
29890, 1999-025GL
Orbit
SSO
Country
Flag of CNCN / PRC
Related business
Manufacturer
Unknown
Mission
Spacecraft
Bus & Motor
Unknown
Mass
Unknown
Launch date (UTC)
1999-05-10 (26 years ago)
Launch vehicle
Unknown
Launch site
Taiyaun Space Center, China (TSC)
Object type
Payload
Rocket body
Debris
Shape & HBR
Unknown shape, 0.1 m
Radar Cross Section
Small (<0.1 m²)

Expand to show TLE details & history
Last TLE update: 19 hours ago

TLE from 19 hours ago
0 FENGYUN 1C DEB
1 29890U 99025GL  25291.28956404  .00003193  00000-0  14461-2 0  9994
2 29890  99.4645  48.6980 0014131 221.9164 138.0931 14.22708213966621
Epoch: 2025-10-18T06:56Z
TLE epoch observation values (Epoch: 2025-10-18T06:56:58.333Z)
Latitude
0.00004°
Longitude
-82.56777°
Altitude
826.675 km
Speed
7.436 km/s
True Right ascension
03h 14m 47s
True Declination
0° 00' 00"
Sunlit
Object was in full shadow at epoch
Visualization orbit readout
Latitude
Unknown
Longitude
Unknown
Altitude
Unknown
Speed
Unknown
Apparent Right ascension
Unknown
Apparent Declination
Unknown
Sunlit
N/A
Visualization observer readout
Local Sidereal Time
21:17:32
Azimuth
Unknown
Elevation
Unknown
Doppler factor
Unknown
Orbital elements
Apogee altitude
823.563 km
Perigee altitude
803.239 km
Semi-major axis
7,191.538 km
Eccentricity
0.00141
Inclination
99.4645°
RAAN
48.698°
Arg. of periapsis
221.9164°
True anomaly
138.20111°
Mean anomaly
138.0931°
Eccentric anomaly
138.14712°
Mean motion
3.55886 °/min
Orbital period
101.16 mins
BSTAR
0.0014461
Loading maneuver chart data...
Computing Atmospheric mass density...

Documentation

Showing up to 5 results
|